Location: Franzen
(48.6167°N, 15.3833°E)
Time: 11:34:11
(UTC+00:00)

Transit 4A - Visible Passes

Search period start: 03 August 2021 00:00
Search period end: 13 August 2021 00:00
Orbit: 872 x 972 km, 66.8° (Epoch: 02 August)

Date Brightness Start Highest point End Pass type
(mag) Time Alt. Az. Time Alt. Az. Time Alt. Az.
03 Aug 9.6 00:39:55 10° W 00:44:41 25° NNW 00:49:27 10° NNE visible
03 Aug 10.3 02:30:35 10° NW 02:33:15 13° N 02:35:56 10° NNE visible
03 Aug 8.8 21:21:03 26° ESE 21:21:03 26° ESE 21:25:43 10° NE visible
03 Aug 8.0 23:04:31 36° WSW 23:06:53 65° NW 23:12:42 10° NNE visible
04 Aug 9.9 00:50:04 10° WNW 00:54:22 21° NNW 00:58:40 10° NNE visible
04 Aug 10.4 02:40:36 10° NNW 02:43:09 13° N 02:45:42 10° NNE visible
04 Aug 8.3 21:29:37 37° ESE 21:30:04 37° ESE 21:35:23 10° NE visible
04 Aug 8.5 23:13:05 24° WSW 23:16:18 48° NW 23:21:58 10° NNE visible
05 Aug 10.2 01:00:19 10° WNW 01:04:07 17° NNW 01:07:55 10° NNE visible
05 Aug 10.4 02:50:22 10° NNW 02:53:02 13° N 02:55:42 10° NNE visible
05 Aug 7.9 21:38:06 46° SSE 21:39:13 53° ESE 21:44:53 10° NE visible
05 Aug 9.0 23:21:33 15° WSW 23:25:47 37° NW 23:31:11 10° NNE visible
06 Aug 10.3 01:10:38 10° NW 01:13:55 15° NNW 01:17:14 10° NNE visible
06 Aug 10.4 02:59:54 10° NNW 03:02:54 14° NNE 03:05:55 10° NE visible
06 Aug 9.4 20:03:00 14° ESE 20:03:05 14° ESE 20:05:51 10° ENE visible
06 Aug 7.6 21:46:27 43° SSW 21:48:26 75° ESE 21:54:17 10° NE visible
06 Aug 9.5 23:30:20 10° W 23:35:22 29° NW 23:40:24 10° NNE visible
07 Aug 10.4 01:20:54 10° NW 01:23:46 14° N 01:26:39 10° NNE visible
07 Aug 9.0 20:11:13 20° ESE 20:12:04 20° ESE 20:16:13 10° ENE visible
07 Aug 7.8 21:54:39 29° SW 21:57:45 80° NW 22:03:36 10° NE visible
07 Aug 9.8 23:40:25 10° W 23:45:01 23° NNW 23:49:36 10° NNE visible
08 Aug 10.5 01:31:03 10° NNW 01:33:39 13° N 01:36:16 10° NNE visible
08 Aug 8.6 20:19:11 24° SE 20:21:05 29° ESE 20:26:03 10° NE visible
08 Aug 8.3 22:02:37 17° SW 22:07:07 58° NW 22:12:53 10° NNE visible
08 Aug 10.1 23:50:36 10° WNW 23:54:43 19° NNW 23:58:50 10° NNE visible
09 Aug 10.5 01:40:59 10° NNW 01:43:33 13° N 01:46:07 10° NNE visible
09 Aug 8.1 20:26:47 21° S 20:30:12 42° ESE 20:35:39 10° NE visible
09 Aug 8.8 22:10:59 10° WSW 22:16:33 43° NW 22:22:07 10° NNE visible
10 Aug 10.4 00:00:53 10° WNW 00:04:29 16° NNW 00:08:06 10° NNE visible
10 Aug 10.5 01:50:40 10° NNW 01:53:26 13° N 01:56:12 10° NE visible
10 Aug 7.8 20:33:37 10° SSW 20:39:23 60° ESE 20:45:07 10° NE visible
10 Aug 9.3 22:20:49 10° WSW 22:26:04 33° NW 22:31:20 10° NNE visible
11 Aug 10.5 00:11:10 10° NW 00:14:18 15° NNW 00:17:27 10° NNE visible
11 Aug 10.5 02:00:09 10° NNW 02:03:18 15° NNE 02:06:28 10° NE visible
11 Aug 9.2 18:59:47 10° SE 19:03:09 16° ESE 19:06:31 10° ENE visible
11 Aug 7.7 20:42:45 10° SSW 20:48:38 84° ESE 20:54:29 10° NE visible
11 Aug 9.7 22:30:47 10° W 22:35:40 27° NW 22:40:33 10° NNE visible
12 Aug 10.6 00:21:25 10° NW 00:24:10 13° N 00:26:56 10° NNE visible
12 Aug 10.5 02:09:29 10° NNW 02:13:07 16° NNE 02:16:47 10° ENE visible
12 Aug 8.8 19:07:39 10° SSE 19:12:08 23° ESE 19:16:38 10° ENE visible
12 Aug 8.0 20:52:06 10° SW 20:57:57 71° NW 21:03:48 10° NNE visible
12 Aug 10.1 22:40:54 10° WNW 22:45:20 22° NNW 22:49:46 10° NNE visible
